Hourly Data Report for October 15, 2013

All times are specified in Local Standard Time (LST). Add 1 hour to adjust for Daylight Saving Time where and when it is observed.

TORONTO INTL A
ONTARIO

43°40'36.000" N
79°37'50.000" W
173.40 m
6158731
71624
YYZ

Download Data

Hourly Data (October 2013)
Hourly Data Report for October 15, 2013
Temp Definition
°C
Dew Point Temp Definition
°C
Rel Hum Definition
%
Wind Dir Definition
10's deg

Wind Spd Definition
km/h
Visibility Definition
km
Stn Press Definition
kPa
Hmdx Definition


Wind Chill Definition


Weather Definition


TIME
00:00 Legend Double Dagger 9.5 6.8 83 36 11 24.1 100.50     LegendNANA
01:00 Legend Double Dagger 8.4 6.2 86 1 12 24.1 100.43     Clear
02:00 Legend Double Dagger 7.7 5.9 88 32 14 24.1 100.37     LegendNANA
03:00 Legend Double Dagger 7.9 5.7 86 34 6 24.1 100.35     LegendNANA
04:00 Legend Double Dagger 6.0 4.3 89 27 5 24.1 100.33     Clear
05:00 Legend Double Dagger 7.4 5.4 87 36 6 24.1 100.30     LegendNANA
06:00 Legend Double Dagger 7.6 5.8 88 1 4 24.1 100.27     LegendNANA
07:00 Legend Double Dagger 8.6 6.6 87 2 8 24.1 100.28     Mostly Cloudy
08:00 Legend Double Dagger 10.2 8.5 89 4 9 24.1 100.22     LegendNANA
09:00 Legend Double Dagger 13.0 10.7 86 10 10 24.1 100.18     LegendNANA
10:00 Legend Double Dagger 14.6 9.9 73 11 21 24.1 100.14     Mostly Cloudy
11:00 Legend Double Dagger 16.0 8.6 61 11 23 24.1 100.04     LegendNANA
12:00 Legend Double Dagger 16.4 9.7 64 11 18 24.1 99.98     LegendNANA
13:00 Legend Double Dagger 16.9 9.9 63 11 22 24.1 99.82     Mostly Cloudy
14:00 Legend Double Dagger 16.5 9.3 62 12 19 24.1 99.76     LegendNANA
15:00 Legend Double Dagger 17.1 10.3 64 11 17 24.1 99.66     LegendNANA
16:00 Legend Double Dagger 16.1 10.5 69 10 14 24.1 99.64     Mostly Cloudy
17:00 Legend Double Dagger 15.8 11.6 76 10 14 24.1 99.57     LegendNANA
18:00 Legend Double Dagger 15.5 11.9 79 10 14 24.1 99.49     LegendNANA
19:00 Legend Double Dagger 15.7 12.3 80 10 13 24.1 99.43     Cloudy
20:00 Legend Double Dagger 16.0 13.0 82 12 9 24.1 99.37     LegendNANA
21:00 Legend Double Dagger 16.3 13.4 83 14 9 24.1 99.30     LegendNANA
22:00 Legend Double Dagger 16.5 13.8 84 13 10 24.1 99.24     Cloudy
23:00 Legend Double Dagger 16.3 14.0 86 14 8 24.1 99.20     LegendNANA

Notes on Data Quality.

Legend

  • E = Estimated
  • M = Missing
  • NA = Not Available
  • ‡ = Partner data that is not subject to review by the National Climate Archives
Date modified: